[[{"header":{"parameterUnit":"m.s-1","parameterCategory":2,"la1":30.2991,"la2":30.254,"lo1":-89.0895,"lo2":-89.0444,"dy":0.0017,"dx":0.0017,"nx":28,"ny":28,"refTime":"2024-03-24T21:00:00:Z","depth":"0","parameterNumber":2,"parameterNumberName":"U-component_of_CURRENTS"},"data":[0,0,0,0,0,0,0,0,0,0,0,0,0,0,0,0,0,0,0,0,0,0,0,0,0,0,0,0,0,0,0,0,0,0,0,0,0,0,0,0,0,0,0,0,0,0,0,0,0,0,0,0,0,0,0,0,0,0,0.1763,0.1762,0,0.168,0.1679,0.1678,0.1606,0.1606,0.1605,0.1604,0.1542,0.1541,0.154,0,0,0,0,0,0,0,0,0,0,0,0,0,0.1823,0.1822,0.1763,0.1762,0.1761,0.1681,0.1679,0.1678,0.1606,0.1605,0.1605,0.1604,0.1543,0.1541,0.154,0,0,0,0,0,0,0,0,0,0,0,0,0,0.1771,0.1822,0.1763,0.1718,0.1714,0.1681,0.1679,0.1677,0.1606,0.1605,0.1605,0.1604,0.1543,0.1541,0.154,0.1545,0,0,0.1534,0.1534,0,0,0,0,0,0,0,0,0.1774,0.1769,0.1726,0.1721,0.1716,0.1656,0.1677,0.1635,0.1606,0.1644,0.1604,0.1604,0.1585,0.158,0.1561,0.1542,0.1539,0.1534,0.1533,0.1532,0.1532,0,0,0,0,0,0,0,0.1778,0.1772,0.1727,0.1725,0.1719,0.169,0.1682,0.1669,0.1618,0.164,0.1636,0.1632,0.1582,0.1563,0.1559,0.1538,0.1534,0.1533,0.1532,0.1531,0.1618,0.1621,0,0,0,0,0,0,0.1797,0.1775,0.173,0.1725,0.1748,0.169,0.1681,0.1673,0.1617,0.1608,0.1633,0.1629,0.1566,0.1561,0.1557,0.1622,0.1532,0.1531,0.153,0.1615,0.1619,0.1622,0,0,0,0,0,0,0.1799,0.1794,0.1733,0.1751,0.1742,0.1691,0.1682,0.1672,0.1663,0.1612,0.1603,0.1636,0.1565,0.1559,0.1576,0.1616,0.153,0.1528,0.1611,0.1616,0.1621,0.1712,0,0,0,0,0,0,0.1801,0.1795,0.1795,0.1752,0.1741,0.1726,0.1683,0.1671,0.1663,0.1657,0.1612,0.1604,0.1564,0.1579,0.1574,0.1612,0.1527,0.1606,0.1613,0.1619,0.1705,0.172,0.1733,0,0,0,0,0,0.1803,0.18,0.1796,0.179,0.1744,0.1727,0.1719,0.1678,0.1664,0.1666,0.1652,0.1606,0.1616,0.158,0.1573,0.1612,0.1603,0.1611,0.1618,0.1699,0.1717,0.1732,0,0,0,0,0,0,0.1814,0.1792,0.1786,0.1774,0.1763,0.1717,0.1708,0.1694,0.1681,0.1679,0.1636,0.1629,0.1662,0.1637,0.1598,0.1664,0.1608,0.1614,0.1671,0.1688,0.1701,0.1702,0.1526,0,0,0,0,0,0.1824,0.1821,0.18,0.1793,0.1791,0.1759,0.1748,0.1728,0.1712,0.1703,0.168,0.1674,0.1688,0.1686,0.1683,0.171,0.1707,0.174,0.1754,0.1765,0.1767,0.1816,0.1833,0.1647,0.1647,0.1647,0,0,0.1823,0.1814,0.181,0.1797,0.178,0.1783,0.1749,0.1741,0.1753,0.1702,0.1715,0.1716,0.1709,0.1742,0.1755,0.1723,0.1823,0.1775,0.1784,0.1779,0.1826,0.1843,0.1859,0.1652,0.1651,0.1651,0,0,0.1823,0.182,0.1819,0.182,0.1813,0.1803,0.1813,0.179,0.179,0.1809,0.1795,0.183,0.1821,0.1837,0.1843,0.1937,0.1896,0.1941,0.2001,0.205,0.2064,0.2077,0.2111,0.2127,0.1945,0.1945,0.1945,0,0.1825,0.1821,0.1817,0.1823,0.1828,0.1822,0.1831,0.1837,0.1828,0.1848,0.1827,0.1879,0.187,0.1938,0.1972,0.1966,0.1978,0.193,0.2065,0.2078,0.2089,0.2121,0.2136,0.195,0.195,0.1949,0.1949,0,0.1826,0.183,0.1832,0.1845,0.1856,0.1862,0.188,0.1902,0.1911,0.192,0.1987,0.1994,0.2022,0.2044,0.2029,0.2124,0.2102,0.2076,0.2013,0.2113,0.2141,0.2155,0.1958,0.1956,0.1954,0.1953,0,0,0.1806,0.1828,0.1829,0.1844,0.187,0.1877,0.1926,0.1965,0.2004,0.2029,0.2086,0.2139,0.2149,0.2161,0.2168,0.2216,0.2316,0.2183,0.2183,0.2201,0.2418,0.2342,0.2349,0.2308,0.2311,0.2313,0.2409,0,0.1806,0.1821,0.1839,0.187,0.1882,0.1916,0.1961,0.2008,0.2046,0.2104,0.2157,0.2208,0.2194,0.222,0.2272,0.23,0.2356,0.2292,0.2333,0.2334,0.2241,0.2365,0.2293,0.2366,0.2422,0.2425,0.2426,0,0.1799,0.1814,0.1834,0.1889,0.1899,0.1927,0.2008,0.2049,0.2141,0.2174,0.2247,0.2276,0.2369,0.2335,0.2443,0.24,0.2423,0.2442,0.2445,0.2346,0.2285,0.2276,0.239,0.2361,0.2448,0.2446,0.2444,0,0.178,0.1815,0.1833,0.1848,0.1907,0.1941,0.1984,0.207,0.2118,0.2226,0.2269,0.2369,0.2419,0.2477,0.2513,0.2486,0.2616,0.2578,0.2539,0.2533,0.2466,0.2448,0.2538,0.2667,0.2667,0.2667,0.2666,0,0.1771,0.1788,0.1826,0.1837,0.1878,0.1934,0.1999,0.2057,0.2154,0.2224,0.2302,0.2373,0.2456,0.2529,0.2555,0.2592,0.2652,0.2575,0.2565,0.2497,0.2482,0.2444,0.2407,0.267,0.2669,0.2669,0.2668,0,0.1746,0.1765,0.1789,0.1846,0.1864,0.1898,0.1987,0.2044,0.2133,0.2229,0.2267,0.2395,0.2493,0.2561,0.266,0.2634,0.2611,0.2678,0.2583,0.2559,0.2456,0.2425,0.2351,0.2286,0.2652,0.2651,0.265,0,0.1737,0.1742,0.1779,0.1795,0.182,0.1876,0.1921,0.2018,0.2081,0.2239,0.2286,0.2415,0.2496,0.2605,0.2611,0.2655,0.2595,0.2587,0.252,0.2466,0.2426,0.23,0.2242,0.2484,0.2482,0.248,0.2479,0,0.1726,0.1731,0.175,0.177,0.1807,0.1845,0.1919,0.1958,0.2088,0.2165,0.2287,0.2367,0.2483,0.2503,0.2541,0.255,0.2459,0.2546,0.2536,0.2345,0.2169,0.2095,0.2397,0.2462,0.2464,0.2465,0.2466,0.2466,0.1717,0.1719,0.1736,0.1751,0.1786,0.1814,0.1831,0.1914,0.1986,0.2083,0.2212,0.2285,0.2387,0.2431,0.242,0.2371,0.2332,0.2327,0.2312,0.2201,0.2081,0.2329,0.234,0.2341,0.2342,0.2342,0.2343,0,0.1699,0.1703,0.1723,0.1732,0.1744,0.1773,0.1827,0.1832,0.188,0.1986,0.2065,0.2163,0.2195,0.2259,0.2271,0.2181,0.2059,0.2134,0.1987,0.1955,0.2246,0.2183,0.2103,0.2103,0.2103,0.2103,0.2103,0.2103,0.1689,0.1687,0.1686,0.168,0.169,0.1677,0.1687,0.1696,0.1748,0.1791,0.1844,0.1915,0.2099,0.2175,0.2137,0.2077,0.1932,0.1812,0.1806,0.2075,0.2093,0.211,0.2047,0.1939,0.1939,0.145,0.1446,0.1444]},{"header":{"parameterUnit":"m.s-1","parameterCategory":2,"la1":30.2991,"la2":30.254,"lo1":-89.0895,"lo2":-89.0444,"dy":0.0017,"dx":0.0017,"nx":28,"ny":28,"refTime":"2024-03-24T21:00:00:Z","depth":"0","parameterNumber":3,"parameterNumberName":"V-component_of_CURRENTS"},"data":[0,0,0,0,0,0,0,0,0,0,0,0,0,0,0,0,0,0,0,0,0,0,0,0,0,0,0,0,0,0,0,0,0,0,0,0,0,0,0,0,0,0,0,0,0,0,0,0,0,0,0,0,0,0,0,0,0,0,0.0021,0.002,0,-0.0037,-0.0038,-0.0039,-0.0069,-0.0069,-0.0069,-0.0069,-0.0147,-0.0149,-0.0151,0,0,0,0,0,0,0,0,0,0,0,0,0,0.0064,0.0063,0.0021,0.002,0.0019,-0.0037,-0.0038,-0.0039,-0.0069,-0.0069,-0.0069,-0.0069,-0.0147,-0.0149,-0.0152,0,0,0,0,0,0,0,0,0,0,0,0,0,0.0029,0.0063,0.0021,-0.0002,-0.0004,-0.0037,-0.0038,-0.0039,-0.0069,-0.0069,-0.0069,-0.0069,-0.0146,-0.0149,-0.0152,-0.0173,0,0,-0.0162,-0.0163,0,0,0,0,0,0,0,0,0.0031,0.0027,0.0002,-0.0,-0.0003,-0.0045,-0.0052,-0.0085,-0.0069,-0.0045,-0.0069,-0.0069,-0.0114,-0.012,-0.0132,-0.0177,-0.018,-0.0162,-0.0164,-0.0165,-0.0166,0,0,0,0,0,0,0,0.0033,0.0029,-0.0003,0.0002,-0.0002,-0.0023,-0.0028,-0.0058,-0.0081,-0.0047,-0.0049,-0.0054,-0.0116,-0.0129,-0.0134,-0.0181,-0.0162,-0.0165,-0.0167,-0.0168,-0.027,-0.0271,0,0,0,0,0,0,0.0044,0.0032,-0.0001,-0.0005,0.0015,-0.0024,-0.0029,-0.0032,-0.008,-0.0087,-0.0054,-0.0056,-0.0124,-0.0131,-0.0137,-0.016,-0.0165,-0.0168,-0.017,-0.027,-0.027,-0.0271,0,0,0,0,0,0,0.0045,0.0042,0.0001,0.0013,0.0006,-0.0024,-0.0028,-0.0033,-0.0046,-0.0085,-0.0092,-0.006,-0.0124,-0.0133,-0.0166,-0.0164,-0.017,-0.0173,-0.0269,-0.027,-0.0271,-0.021,0,0,0,0,0,0,0.0047,0.0043,0.0044,0.0014,0.0006,-0.0012,-0.0028,-0.0035,-0.0048,-0.005,-0.0093,-0.01,-0.0125,-0.0161,-0.0169,-0.0168,-0.0175,-0.0268,-0.0269,-0.0271,-0.0211,-0.0208,-0.0207,0,0,0,0,0,0.0049,0.0052,0.0044,0.004,0.0008,-0.0012,-0.0018,-0.004,-0.0048,-0.0052,-0.0084,-0.0098,-0.0177,-0.0164,-0.0173,-0.0173,-0.0267,-0.0269,-0.027,-0.0211,-0.0209,-0.0207,0,0,0,0,0,0,0.0069,0.0048,0.0039,0.0035,0.0016,-0.0017,-0.0021,-0.0038,-0.0066,-0.0068,-0.0106,-0.0116,-0.0145,-0.0174,-0.0159,-0.0211,-0.0226,-0.0229,-0.0178,-0.0176,-0.0174,-0.015,-0.0178,0,0,0,0,0,0.0075,0.0073,0.0047,0.0044,0.0038,0.0008,-0.0003,-0.0018,-0.0046,-0.0058,-0.0088,-0.0126,-0.0161,-0.0178,-0.0213,-0.0238,-0.0242,-0.0249,-0.0246,-0.0244,-0.0234,-0.025,-0.0247,-0.0277,-0.0277,-0.0277,0,0,0.0081,0.007,0.0068,0.0049,0.0032,0.0026,0.0002,-0.0011,-0.0018,-0.0063,-0.0082,-0.0119,-0.0168,-0.0195,-0.0212,-0.0217,-0.0235,-0.0247,-0.0244,-0.0235,-0.0251,-0.0248,-0.0245,-0.0278,-0.0278,-0.0278,0,0,0.0097,0.0085,0.009,0.0077,0.0058,0.004,0.0039,0.0009,-0.0004,-0.0029,-0.0065,-0.01,-0.0151,-0.0183,-0.0207,-0.0219,-0.0224,-0.0235,-0.0202,-0.0217,-0.0214,-0.0211,-0.0187,-0.0183,-0.0232,-0.0232,-0.0232,0,0.0107,0.0108,0.0088,0.0089,0.0082,0.0051,0.0054,0.0034,-0.0004,-0.0013,-0.0027,-0.0103,-0.0144,-0.0179,-0.0184,-0.0212,-0.0206,-0.02,-0.0211,-0.0208,-0.0207,-0.0183,-0.0179,-0.023,-0.023,-0.023,-0.023,0,0.0125,0.0125,0.0128,0.012,0.011,0.0107,0.0081,0.007,0.0049,0.0027,-0.0008,-0.0064,-0.0105,-0.013,-0.0159,-0.0174,-0.0167,-0.0202,-0.0206,-0.0199,-0.0175,-0.0172,-0.0226,-0.0227,-0.0227,-0.0228,0,0,0.015,0.0143,0.0144,0.015,0.0128,0.0124,0.0115,0.0099,0.01,0.0057,0.0055,-0.0017,-0.0041,-0.0071,-0.0116,-0.0134,-0.0113,-0.0154,-0.0156,-0.0109,-0.0109,-0.0112,-0.0108,-0.0145,-0.0144,-0.0144,-0.0087,0,0.0171,0.0187,0.0174,0.0187,0.0193,0.0166,0.0163,0.0143,0.0122,0.0112,0.0056,0.0032,-0.0021,-0.0034,-0.0061,-0.0107,-0.0106,-0.0123,-0.0141,-0.0141,-0.0128,-0.0106,-0.01,-0.005,-0.0084,-0.0083,-0.0083,0,0.0195,0.0203,0.0223,0.0227,0.0227,0.0231,0.0228,0.022,0.0193,0.0178,0.0146,0.0107,0.0071,0.0027,-0.0024,-0.0028,-0.0055,-0.0087,-0.0087,-0.0109,-0.0139,-0.0071,-0.0043,-0.013,-0.0078,-0.0078,-0.0079,0,0.0229,0.0238,0.0259,0.0259,0.0256,0.0265,0.0263,0.0243,0.0248,0.0228,0.0239,0.0177,0.017,0.0107,0.0042,0.0015,0.0003,-0.0048,-0.0067,-0.0066,-0.0075,-0.0076,-0.0119,-0.0066,-0.0066,-0.0066,-0.0066,0,0.0257,0.0275,0.0281,0.0293,0.032,0.0307,0.0333,0.0318,0.0318,0.0345,0.0283,0.0304,0.0191,0.0165,0.0087,0.0035,0.0041,-0.0044,-0.0055,-0.0053,-0.0053,-0.0143,-0.0215,-0.0064,-0.0065,-0.0065,-0.0065,0,0.029,0.0293,0.032,0.0333,0.0338,0.036,0.0383,0.0404,0.0399,0.0439,0.0443,0.0414,0.0387,0.0284,0.0203,0.0113,-0.0004,0.0027,0.0059,0.0048,-0.008,-0.0149,-0.0191,-0.0234,0.0011,0.0011,0.0011,0,0.0309,0.0327,0.0354,0.0377,0.0387,0.0418,0.0442,0.0441,0.0474,0.0519,0.0552,0.0544,0.0558,0.044,0.0276,0.0156,0.0047,0.0074,0.0,-0.007,-0.0156,-0.0191,-0.0228,0.003,0.003,0.003,0.003,0,0.0344,0.0355,0.0378,0.0424,0.0459,0.05,0.0542,0.0581,0.0607,0.0663,0.0745,0.0767,0.0659,0.0541,0.0355,0.0247,-0.0002,0.0075,-0.0018,-0.0156,-0.0178,-0.023,0.0001,0.0033,0.0033,0.0032,0.0032,0.0032,0.0372,0.0396,0.0429,0.0473,0.0518,0.0584,0.0637,0.0705,0.0789,0.0892,0.09,0.0972,0.0773,0.0519,0.0348,0.0046,0.0028,-0.0053,-0.0127,-0.015,-0.0217,0.0038,0.0055,0.0055,0.0055,0.0055,0.0055,0,0.0402,0.0429,0.0475,0.0533,0.0594,0.0609,0.0705,0.0781,0.0912,0.1017,0.1104,0.1081,0.0813,0.0528,0.0115,-0.011,-0.0201,-0.0235,-0.0295,-0.0322,-0.0103,-0.013,-0.0129,-0.0129,-0.0129,-0.0129,-0.0129,-0.0129,0.042,0.0462,0.0483,0.0583,0.0636,0.0732,0.0797,0.0926,0.103,0.1197,0.1277,0.1314,0.1143,0.0349,-0.0166,-0.0307,-0.0467,-0.0497,-0.0576,-0.0449,-0.0438,-0.0428,-0.0468,-0.0539,-0.054,-0.0751,-0.0753,-0.0755]}],[{"header":{"parameterUnit":"m.s-1","parameterCategory":2,"la1":30.2991,"la2":30.254,"lo1":-89.0895,"lo2":-89.0444,"dy":0.0017,"dx":0.0017,"nx":28,"ny":28,"refTime":"2024-03-24T21:00:00:Z","depth":"2","parameterNumber":2,"parameterNumberName":"U-component_of_CURRENTS"},"data":[0,0,0,0,0,0,0,0,0,0,0,0,0,0,0,0,0,0,0,0,0,0,0,0,0,0,0,0,0,0,0,0,0,0,0,0,0,0,0,0,0,0,0,0,0,0,0,0,0,0,0,0,0,0,0,0,0,0,0.1449,0.1449,0,0.1421,0.142,0.142,0.1387,0.1387,0.1386,0.1386,0.1349,0.1348,0.1347,0,0,0,0,0,0,0,0,0,0,0,0,0,0.1459,0.1459,0.1449,0.1449,0.1449,0.1421,0.142,0.142,0.1387,0.1387,0.1386,0.1386,0.1349,0.1348,0.1347,0,0,0,0,0,0,0,0,0,0,0,0,0,0.1443,0.1459,0.1449,0.1431,0.1429,0.1421,0.142,0.142,0.1387,0.1387,0.1386,0.1386,0.1349,0.1348,0.1347,0.1349,0,0,0.1344,0.1343,0,0,0,0,0,0,0,0,0.1444,0.1442,0.1434,0.1432,0.143,0.1409,0.141,0.1396,0.1387,0.14,0.1386,0.1386,0.137,0.1367,0.1359,0.1347,0.1345,0.1344,0.1343,0.1343,0.1342,0,0,0,0,0,0,0,0.1445,0.1443,0.1435,0.1434,0.1432,0.1419,0.1416,0.1407,0.1386,0.1399,0.1397,0.1398,0.1369,0.1361,0.1358,0.1345,0.1344,0.1343,0.1342,0.1342,0.1425,0.1427,0,0,0,0,0,0,0.1455,0.1445,0.1436,0.1435,0.1439,0.142,0.1416,0.1414,0.1386,0.1382,0.1399,0.1397,0.1363,0.136,0.1357,0.1417,0.1343,0.1342,0.1341,0.1422,0.1425,0.1428,0,0,0,0,0,0,0.1455,0.1454,0.1437,0.1441,0.1438,0.142,0.1418,0.1414,0.1416,0.1386,0.1381,0.1407,0.1362,0.1359,0.1373,0.1413,0.1341,0.134,0.1418,0.1423,0.1427,0.1499,0,0,0,0,0,0,0.1456,0.1455,0.146,0.1442,0.1439,0.1444,0.1419,0.1414,0.1418,0.1416,0.1392,0.1387,0.1362,0.1375,0.1372,0.141,0.1339,0.1415,0.142,0.1426,0.1493,0.1505,0.1516,0,0,0,0,0,0.1456,0.146,0.146,0.1459,0.1445,0.1445,0.1442,0.1426,0.1419,0.1425,0.142,0.1388,0.1408,0.1376,0.1372,0.1411,0.1412,0.1419,0.1425,0.1488,0.1503,0.1516,0,0,0,0,0,0,0.1461,0.1457,0.1456,0.1457,0.146,0.144,0.1443,0.1438,0.1437,0.1437,0.141,0.1406,0.1437,0.1422,0.1388,0.1457,0.1411,0.1417,0.1461,0.1475,0.1486,0.1484,0.1338,0,0,0,0,0,0.1468,0.1473,0.1469,0.1472,0.1476,0.1466,0.1465,0.1458,0.1454,0.1452,0.1441,0.1443,0.146,0.1464,0.1466,0.1494,0.1493,0.1525,0.1536,0.1546,0.1546,0.1598,0.1614,0.145,0.145,0.1449,0,0,0.147,0.147,0.1472,0.1475,0.1473,0.1482,0.1463,0.1469,0.1484,0.145,0.1469,0.1475,0.1478,0.1513,0.1527,0.1503,0.1595,0.1554,0.1561,0.1557,0.1607,0.1622,0.1636,0.1454,0.1453,0.1452,0,0,0.1474,0.148,0.1485,0.1493,0.1501,0.15,0.1509,0.1505,0.1513,0.1534,0.153,0.1566,0.1568,0.159,0.16,0.168,0.1652,0.1689,0.174,0.1791,0.1804,0.1816,0.1837,0.185,0.1695,0.1695,0.1695,0,0.1478,0.1484,0.1488,0.1498,0.151,0.1513,0.1527,0.1539,0.1544,0.1564,0.155,0.1607,0.1608,0.1672,0.1706,0.1703,0.1716,0.168,0.1804,0.1815,0.1825,0.1844,0.1857,0.1699,0.1699,0.1698,0.1698,0,0.1484,0.1496,0.1502,0.152,0.1536,0.1549,0.157,0.1591,0.1605,0.162,0.1682,0.1698,0.1734,0.1756,0.1751,0.1842,0.1821,0.1808,0.1761,0.1846,0.1861,0.1873,0.1705,0.1704,0.1703,0.1702,0,0,0.1471,0.15,0.1503,0.1519,0.1551,0.1561,0.1604,0.1643,0.1674,0.1707,0.1761,0.1817,0.1834,0.185,0.1867,0.1916,0.2007,0.1899,0.19,0.1906,0.2106,0.2015,0.2019,0.2017,0.2019,0.2021,0.2085,0,0.1476,0.1497,0.1517,0.1549,0.1563,0.1596,0.1636,0.1678,0.1711,0.1765,0.1822,0.1871,0.187,0.1898,0.1956,0.1992,0.2044,0.199,0.2035,0.2036,0.1933,0.2033,0.1897,0.1936,0.2097,0.2099,0.2101,0,0.1473,0.1491,0.1518,0.1567,0.1579,0.1605,0.167,0.1708,0.179,0.1821,0.189,0.1921,0.2015,0.1997,0.2107,0.2072,0.2101,0.2122,0.2125,0.202,0.1969,0.1879,0.1952,0.2121,0.2119,0.2118,0.2116,0,0.1453,0.1492,0.1515,0.1531,0.1586,0.1616,0.1656,0.1725,0.177,0.1862,0.1906,0.1998,0.2061,0.2117,0.2163,0.2145,0.2267,0.2242,0.2187,0.218,0.2061,0.2038,0.2326,0.2326,0.2326,0.2326,0.2326,0,0.1445,0.1464,0.1507,0.1518,0.1559,0.161,0.1662,0.1713,0.1803,0.1864,0.1941,0.1999,0.2098,0.2169,0.2196,0.2228,0.2296,0.2212,0.2203,0.2082,0.2061,0.2212,0.2198,0.2328,0.2328,0.2327,0.2327,0,0.1416,0.1443,0.1468,0.1525,0.1546,0.1577,0.1659,0.1701,0.1789,0.1876,0.1912,0.2033,0.2115,0.2187,0.2281,0.2263,0.2297,0.229,0.2124,0.2094,0.2165,0.2154,0.2236,0.2234,0.2232,0.223,0.2229,0,0.1405,0.1413,0.1458,0.1474,0.15,0.1551,0.1592,0.1684,0.1728,0.1877,0.192,0.2038,0.2091,0.2189,0.2196,0.2225,0.2275,0.2088,0.2026,0.2179,0.2162,0.2155,0.2147,0.1905,0.1901,0.1898,0.1895,0,0.1386,0.1397,0.1417,0.1443,0.1478,0.1512,0.1575,0.1608,0.1723,0.1793,0.1889,0.1946,0.205,0.2019,0.2052,0.204,0.2067,0.2019,0.2261,0.1932,0.1868,0.185,0.1854,0.1866,0.1869,0.1871,0.1873,0.1874,0.1371,0.137,0.1391,0.141,0.1446,0.1468,0.1476,0.1538,0.1595,0.1675,0.1777,0.1815,0.1869,0.1841,0.1801,0.178,0.1911,0.1834,0.1844,0.1858,0.1792,0.1726,0.1685,0.1686,0.1688,0.1689,0.169,0,0.1343,0.1346,0.1361,0.1373,0.1376,0.142,0.1459,0.1442,0.1465,0.1561,0.1609,0.1515,0.1511,0.157,0.1507,0.1497,0.1483,0.1428,0.1419,0.145,0.1477,0.1391,0.1178,0.1176,0.1174,0.1172,0,0,0.1328,0.132,0.1314,0.1296,0.131,0.1298,0.1303,0.1283,0.132,0.1311,0.1332,0.1441,0.1539,0.1338,0.1322,0.125,0.1333,0.1196,0.1617,0.1641,0.1665,0.1731,0.1636,0,0,0,0,0]},{"header":{"parameterUnit":"m.s-1","parameterCategory":2,"la1":30.2991,"la2":30.254,"lo1":-89.0895,"lo2":-89.0444,"dy":0.0017,"dx":0.0017,"nx":28,"ny":28,"refTime":"2024-03-24T21:00:00:Z","depth":"2","parameterNumber":3,"parameterNumberName":"V-component_of_CURRENTS"},"data":[0,0,0,0,0,0,0,0,0,0,0,0,0,0,0,0,0,0,0,0,0,0,0,0,0,0,0,0,0,0,0,0,0,0,0,0,0,0,0,0,0,0,0,0,0,0,0,0,0,0,0,0,0,0,0,0,0,0,-0.0114,-0.0115,0,-0.0146,-0.0147,-0.0147,-0.016,-0.016,-0.016,-0.016,-0.0207,-0.0209,-0.021,0,0,0,0,0,0,0,0,0,0,0,0,0,-0.0096,-0.0096,-0.0114,-0.0115,-0.0115,-0.0146,-0.0147,-0.0147,-0.016,-0.016,-0.016,-0.016,-0.0207,-0.0209,-0.021,0,0,0,0,0,0,0,0,0,0,0,0,0,-0.0114,-0.0096,-0.0114,-0.0125,-0.0126,-0.0146,-0.0147,-0.0147,-0.016,-0.016,-0.016,-0.016,-0.0206,-0.0208,-0.0211,-0.0227,0,0,-0.0217,-0.0218,0,0,0,0,0,0,0,0,-0.0113,-0.0115,-0.0123,-0.0124,-0.0126,-0.0149,-0.0158,-0.0175,-0.016,-0.0148,-0.016,-0.016,-0.0189,-0.0193,-0.0199,-0.0229,-0.0231,-0.0217,-0.0218,-0.0219,-0.022,0,0,0,0,0,0,0,-0.0112,-0.0113,-0.0128,-0.0123,-0.0125,-0.0139,-0.0141,-0.0161,-0.017,-0.0149,-0.015,-0.0153,-0.019,-0.0197,-0.0201,-0.0232,-0.0217,-0.0219,-0.022,-0.0221,-0.0299,-0.0299,0,0,0,0,0,0,-0.0105,-0.0112,-0.0127,-0.0128,-0.0118,-0.0139,-0.0142,-0.0142,-0.0169,-0.0173,-0.0153,-0.0153,-0.0194,-0.0198,-0.0202,-0.022,-0.0219,-0.0221,-0.0222,-0.0298,-0.0299,-0.03,0,0,0,0,0,0,-0.0104,-0.0106,-0.0125,-0.0121,-0.0124,-0.0139,-0.014,-0.0143,-0.015,-0.0172,-0.0176,-0.0157,-0.0194,-0.02,-0.022,-0.0222,-0.0222,-0.0224,-0.0297,-0.0298,-0.0299,-0.0257,0,0,0,0,0,0,-0.0104,-0.0105,-0.0104,-0.012,-0.0124,-0.0133,-0.014,-0.0143,-0.0151,-0.0152,-0.0177,-0.0181,-0.0194,-0.0217,-0.0222,-0.0225,-0.0225,-0.0296,-0.0297,-0.0299,-0.0257,-0.0257,-0.0256,0,0,0,0,0,-0.0103,-0.0097,-0.0104,-0.0105,-0.0121,-0.0132,-0.0136,-0.0147,-0.0152,-0.0153,-0.0172,-0.018,-0.0231,-0.0219,-0.0225,-0.0228,-0.0295,-0.0297,-0.0299,-0.0258,-0.0257,-0.0256,0,0,0,0,0,0,-0.0085,-0.0098,-0.0106,-0.0103,-0.0116,-0.0134,-0.0134,-0.0146,-0.0163,-0.0162,-0.0186,-0.0191,-0.0211,-0.0231,-0.0218,-0.0259,-0.0267,-0.027,-0.0234,-0.0233,-0.0233,-0.021,-0.0227,0,0,0,0,0,-0.0082,-0.0082,-0.0098,-0.0097,-0.0101,-0.0119,-0.0126,-0.0134,-0.015,-0.0157,-0.0176,-0.0201,-0.0225,-0.0236,-0.0259,-0.0279,-0.0279,-0.0289,-0.0288,-0.0287,-0.0276,-0.0285,-0.0284,-0.0306,-0.0306,-0.0306,0,0,-0.0074,-0.0081,-0.0082,-0.0093,-0.0103,-0.0105,-0.0122,-0.0128,-0.013,-0.016,-0.0169,-0.0197,-0.0231,-0.025,-0.0262,-0.0265,-0.0281,-0.029,-0.0288,-0.0277,-0.0287,-0.0284,-0.0282,-0.0307,-0.0307,-0.0307,0,0,-0.0056,-0.0065,-0.0059,-0.0068,-0.008,-0.0092,-0.0094,-0.0112,-0.012,-0.0137,-0.0161,-0.0187,-0.0223,-0.0245,-0.0262,-0.0275,-0.0277,-0.029,-0.0265,-0.0275,-0.0272,-0.027,-0.0255,-0.0252,-0.0289,-0.0289,-0.0289,0,-0.0046,-0.0042,-0.0059,-0.0056,-0.0059,-0.0085,-0.0078,-0.0092,-0.0116,-0.012,-0.0134,-0.0188,-0.0218,-0.0241,-0.0248,-0.027,-0.0267,-0.0259,-0.027,-0.0268,-0.0267,-0.0252,-0.0249,-0.0287,-0.0288,-0.0288,-0.0288,0,-0.0026,-0.0023,-0.0019,-0.0024,-0.003,-0.003,-0.0049,-0.0057,-0.0073,-0.0088,-0.0113,-0.0157,-0.0185,-0.0209,-0.0231,-0.0243,-0.0239,-0.0264,-0.0262,-0.0261,-0.0247,-0.0245,-0.0285,-0.0285,-0.0286,-0.0286,0,0,0.0,-0.0003,-0.0002,0.0004,-0.0013,-0.0012,-0.0016,-0.0026,-0.002,-0.0056,-0.0053,-0.0112,-0.0133,-0.0154,-0.0192,-0.0208,-0.0198,-0.0227,-0.0228,-0.0194,-0.0195,-0.0208,-0.0206,-0.022,-0.0219,-0.0219,-0.0184,0,0.0022,0.004,0.0029,0.0044,0.0052,0.003,0.0032,0.002,0.0003,-0.0001,-0.0049,-0.0064,-0.0113,-0.0124,-0.0148,-0.0187,-0.0191,-0.0203,-0.0217,-0.0217,-0.0214,-0.0204,-0.0195,-0.0165,-0.0181,-0.0181,-0.0181,0,0.0045,0.0055,0.0078,0.0085,0.0087,0.0092,0.0097,0.0094,0.0077,0.0065,0.0039,0.0007,-0.0025,-0.0067,-0.0113,-0.0115,-0.0146,-0.0176,-0.0176,-0.0199,-0.0226,-0.0175,-0.016,-0.0177,-0.0177,-0.0177,-0.0178,0,0.0077,0.0089,0.0111,0.0112,0.0115,0.0126,0.0128,0.0118,0.0127,0.0113,0.0124,0.0073,0.0065,0.0008,-0.0059,-0.008,-0.0098,-0.0137,-0.0172,-0.0172,-0.0173,-0.0174,-0.0157,-0.0157,-0.0157,-0.0157,-0.0157,0,0.0103,0.012,0.0131,0.0144,0.0174,0.0165,0.0195,0.0187,0.0192,0.0222,0.0166,0.0185,0.0084,0.0056,-0.002,-0.0078,-0.0065,-0.0154,-0.0166,-0.0159,-0.0159,-0.0184,-0.0188,-0.0156,-0.0156,-0.0157,-0.0157,0,0.0129,0.0136,0.0164,0.0182,0.0191,0.0214,0.0241,0.0265,0.0265,0.0306,0.031,0.0281,0.0248,0.0152,0.0073,-0.0011,-0.0081,-0.0103,-0.0077,-0.0088,-0.0154,-0.0156,-0.0135,-0.0135,-0.0136,-0.0136,-0.0136,0,0.0143,0.0161,0.0195,0.022,0.023,0.0264,0.0292,0.0299,0.0334,0.0375,0.0407,0.0389,0.0387,0.0265,0.0116,-0.0005,-0.004,-0.0084,-0.014,-0.0138,-0.0152,-0.0154,-0.0156,-0.0114,-0.0114,-0.0114,-0.0114,0,0.0167,0.0181,0.0207,0.0258,0.0295,0.034,0.0386,0.0425,0.0456,0.0505,0.0572,0.0576,0.0461,0.0337,0.0153,0.0056,-0.0073,-0.0087,-0.0083,-0.0131,-0.0119,-0.0132,-0.0134,-0.0113,-0.0113,-0.0113,-0.0113,-0.0113,0.0186,0.0208,0.0246,0.0295,0.0345,0.0417,0.0468,0.0532,0.061,0.069,0.0691,0.0713,0.0547,0.0323,0.0145,-0.005,-0.0046,-0.0126,-0.0125,-0.0125,-0.014,-0.013,-0.0126,-0.0126,-0.0127,-0.0127,-0.0127,0,0.0206,0.0233,0.0279,0.0344,0.0409,0.0434,0.0532,0.0594,0.0708,0.0779,0.0832,0.0706,0.0555,0.0366,0.0085,-0.0093,-0.0121,-0.0156,-0.0149,-0.0148,-0.0148,-0.0164,-0.0157,-0.0157,-0.0158,-0.0158,0,0,0.0218,0.0258,0.028,0.0383,0.0442,0.0542,0.0608,0.0708,0.0784,0.0868,0.0892,0.0867,0.0642,0.0433,0.0185,0.0022,-0.0027,-0.002,0.0023,0.0061,0.0064,-0.0111,-0.0132,0,0,0,0,0]}],[{"header":{"parameterUnit":"m.s-1","parameterCategory":2,"la1":30.2991,"la2":30.254,"lo1":-89.0895,"lo2":-89.0444,"dy":0.0017,"dx":0.0017,"nx":28,"ny":28,"refTime":"2024-03-24T21:00:00:Z","depth":"4","parameterNumber":2,"parameterNumberName":"U-component_of_CURRENTS"},"data":[0,0,0,0,0,0,0,0,0,0,0,0,0,0,0,0,0,0,0,0,0,0,0,0,0,0,0,0,0,0,0,0,0,0,0,0,0,0,0,0,0,0,0,0,0,0,0,0,0,0,0,0,0,0,0,0,0,0,0.0881,0.0882,0,0.0941,0.0941,0.0942,0.0985,0.0986,0.0987,0.0987,0.0993,0.0993,0.0992,0,0,0,0,0,0,0,0,0,0,0,0,0,0.0788,0.079,0.0881,0.0882,0.0883,0.0941,0.0941,0.0942,0.0985,0.0986,0.0987,0.0987,0.0993,0.0993,0.0992,0,0,0,0,0,0,0,0,0,0,0,0,0,0.0834,0.079,0.0881,0.0913,0.0917,0.0941,0.0941,0.0942,0.0985,0.0986,0.0987,0.0988,0.0994,0.0993,0.0992,0.0971,0,0,0.0991,0.099,0,0,0,0,0,0,0,0,0.0831,0.0837,0.0908,0.0911,0.0915,0.0959,0.0911,0.095,0.0985,0.0957,0.0987,0.0988,0.0978,0.0978,0.0985,0.0971,0.0972,0.0991,0.099,0.099,0.099,0,0,0,0,0,0,0,0.0828,0.0835,0.0902,0.0909,0.0913,0.092,0.0927,0.0919,0.0959,0.0959,0.0963,0.0973,0.0979,0.0986,0.0985,0.0972,0.0991,0.099,0.099,0.0989,0.0979,0.0979,0,0,0,0,0,0,0.0826,0.0832,0.09,0.0904,0.0877,0.0921,0.0929,0.0942,0.096,0.0965,0.0973,0.0975,0.0986,0.0986,0.0986,0.1011,0.099,0.0989,0.0989,0.0979,0.0979,0.0979,0,0,0,0,0,0,0.0824,0.0831,0.0898,0.0871,0.088,0.0922,0.0936,0.0943,0.0969,0.0971,0.0975,0.0995,0.0987,0.0986,0.0993,0.101,0.0989,0.0989,0.0979,0.0979,0.0979,0.103,0,0,0,0,0,0,0.0821,0.083,0.0845,0.0871,0.0882,0.0925,0.0935,0.0943,0.0974,0.0979,0.0991,0.0991,0.0987,0.0994,0.0993,0.1009,0.0988,0.0979,0.0979,0.0979,0.1028,0.1032,0.1035,0,0,0,0,0,0.0817,0.0834,0.0845,0.0854,0.0899,0.0926,0.0932,0.0962,0.0975,0.0988,0.0995,0.0992,0.0994,0.0994,0.0992,0.1008,0.0979,0.0979,0.0979,0.1027,0.1031,0.1035,0,0,0,0,0,0,0.0808,0.0841,0.0854,0.0882,0.0908,0.0934,0.0956,0.097,0.0987,0.0996,0.0993,0.0994,0.1005,0.0994,0.0994,0.1003,0.0985,0.0985,0.1022,0.1026,0.1029,0.1031,0.0988,0,0,0,0,0,0.081,0.0831,0.086,0.0886,0.0901,0.0929,0.0947,0.0966,0.0983,0.0994,0.1001,0.1002,0.1,0.1005,0.0999,0.1004,0.1005,0.1011,0.1015,0.1018,0.1016,0.1041,0.1047,0.098,0.098,0.098,0,0,0.0814,0.0836,0.0849,0.0885,0.091,0.0927,0.0943,0.0976,0.099,0.0988,0.1012,0.1014,0.1002,0.1012,0.1016,0.1009,0.1037,0.1018,0.1021,0.1018,0.1042,0.1048,0.1054,0.098,0.098,0.098,0,0,0.0827,0.0854,0.0873,0.0892,0.0931,0.0942,0.0954,0.0987,0.1006,0.102,0.1025,0.1044,0.1033,0.1044,0.104,0.1056,0.1051,0.1048,0.1073,0.1097,0.1103,0.1109,0.1122,0.1128,0.1054,0.1054,0.1054,0,0.0833,0.0857,0.0883,0.0904,0.092,0.0948,0.0964,0.0983,0.1014,0.1027,0.1032,0.1043,0.105,0.106,0.1074,0.1067,0.107,0.1063,0.1104,0.1109,0.1114,0.1126,0.1132,0.1056,0.1056,0.1056,0.1055,0,0.0851,0.0875,0.0891,0.0919,0.0937,0.0959,0.0983,0.1006,0.1025,0.104,0.1064,0.1076,0.1086,0.1093,0.1091,0.1124,0.1112,0.1106,0.1099,0.1124,0.1134,0.114,0.106,0.1059,0.1058,0.1057,0,0,0.0847,0.0893,0.0899,0.0913,0.0946,0.0961,0.0985,0.101,0.1031,0.1057,0.1081,0.11,0.112,0.1118,0.1127,0.1153,0.1206,0.1148,0.1149,0.1171,0.1251,0.1194,0.1194,0.1208,0.1209,0.121,0.1247,0,0.0853,0.0887,0.0905,0.093,0.0946,0.0971,0.0987,0.1016,0.1041,0.1071,0.1096,0.1124,0.1124,0.1148,0.1171,0.1199,0.1222,0.1196,0.1214,0.1215,0.1169,0.1199,0.1214,0.1251,0.1253,0.1253,0.1254,0,0.0856,0.0878,0.0906,0.0934,0.0944,0.0959,0.0992,0.1016,0.1059,0.1082,0.1114,0.1138,0.1189,0.1185,0.1239,0.1222,0.124,0.1255,0.1257,0.1187,0.1167,0.1218,0.1264,0.1263,0.1263,0.1262,0.1261,0,0.083,0.0872,0.0892,0.0904,0.0942,0.0959,0.0981,0.1023,0.1047,0.1108,0.1134,0.1176,0.1222,0.1242,0.1287,0.1271,0.1336,0.1318,0.1275,0.1271,0.1291,0.1284,0.135,0.135,0.135,0.135,0.135,0,0.0814,0.0831,0.0886,0.0896,0.0915,0.0954,0.098,0.1011,0.1061,0.1083,0.1149,0.1172,0.1243,0.1287,0.1298,0.1307,0.135,0.1282,0.128,0.131,0.1305,0.1295,0.1288,0.1352,0.1351,0.1351,0.1351,0,0.0777,0.0817,0.0839,0.0888,0.0904,0.0922,0.097,0.0988,0.1053,0.1087,0.1115,0.1198,0.1263,0.1313,0.137,0.1333,0.1344,0.1335,0.137,0.1368,0.1255,0.125,0.128,0.1279,0.1277,0.1276,0.1275,0,0.0758,0.077,0.0825,0.0838,0.0861,0.0896,0.0913,0.0973,0.0992,0.1082,0.1089,0.1193,0.1237,0.1268,0.1326,0.1351,0.1338,0.1328,0.128,0.1255,0.125,0.1247,0.1244,0.1273,0.1272,0.1272,0.1272,0,0.0712,0.0742,0.0761,0.079,0.0812,0.0827,0.0862,0.0864,0.0933,0.1008,0.1047,0.1095,0.117,0.1226,0.1274,0.1278,0.1323,0.1313,0.1315,0.1269,0.1246,0.1242,0.1241,0.1267,0.1267,0.1268,0.1268,0,0.0676,0.0676,0.0708,0.0723,0.0749,0.0741,0.0768,0.0794,0.0825,0.0928,0.094,0.1048,0.1147,0.1188,0.1216,0.124,0.1216,0.1164,0.1173,0.1179,0.1133,0.1088,0.1061,0,0,0,0,0,0.0633,0.0625,0.0636,0.064,0.0663,0.0681,0.0721,0.0754,0.0824,0.0828,0.0881,0.0944,0.1016,0.1079,0.1086,0.1172,0.1216,0.1173,0.1158,0.124,0.1245,0.1202,0,0,0,0,0,0,0.0602,0.0609,0.0609,0.0567,0.0562,0.0573,0.0598,0.065,0.066,0.0751,0.0805,0.0887,0.0983,0.101,0.107,0.1088,0.1058,0.1249,0.1246,0.1236,0.1242,0.1246,0.1203,0,0,0,0,0]},{"header":{"parameterUnit":"m.s-1","parameterCategory":2,"la1":30.2991,"la2":30.254,"lo1":-89.0895,"lo2":-89.0444,"dy":0.0017,"dx":0.0017,"nx":28,"ny":28,"refTime":"2024-03-24T21:00:00:Z","depth":"4","parameterNumber":3,"parameterNumberName":"V-component_of_CURRENTS"},"data":[0,0,0,0,0,0,0,0,0,0,0,0,0,0,0,0,0,0,0,0,0,0,0,0,0,0,0,0,0,0,0,0,0,0,0,0,0,0,0,0,0,0,0,0,0,0,0,0,0,0,0,0,0,0,0,0,0,0,-0.0059,-0.0059,0,-0.0077,-0.0077,-0.0077,-0.0087,-0.0087,-0.0087,-0.0087,-0.0086,-0.0086,-0.0086,0,0,0,0,0,0,0,0,0,0,0,0,0,-0.0044,-0.0045,-0.0059,-0.006,-0.006,-0.0077,-0.0077,-0.0077,-0.0087,-0.0087,-0.0087,-0.0087,-0.0086,-0.0086,-0.0086,0,0,0,0,0,0,0,0,0,0,0,0,0,-0.0055,-0.0045,-0.0059,-0.0067,-0.0068,-0.0077,-0.0077,-0.0077,-0.0087,-0.0087,-0.0087,-0.0087,-0.0086,-0.0086,-0.0086,-0.0083,0,0,-0.0085,-0.0085,0,0,0,0,0,0,0,0,-0.0054,-0.0055,-0.0066,-0.0067,-0.0068,-0.008,-0.0071,-0.0078,-0.0087,-0.0079,-0.0087,-0.0087,-0.0083,-0.0083,-0.0085,-0.0083,-0.0082,-0.0085,-0.0085,-0.0085,-0.0085,0,0,0,0,0,0,0,-0.0053,-0.0055,-0.0066,-0.0066,-0.0067,-0.0073,-0.0075,-0.0073,-0.0079,-0.008,-0.0081,-0.0083,-0.0083,-0.0085,-0.0085,-0.0082,-0.0085,-0.0085,-0.0085,-0.0085,-0.0029,-0.0028,0,0,0,0,0,0,-0.0052,-0.0054,-0.0065,-0.0066,-0.0062,-0.0073,-0.0075,-0.0076,-0.008,-0.0081,-0.0083,-0.0084,-0.0086,-0.0085,-0.0085,-0.0065,-0.0085,-0.0085,-0.0085,-0.003,-0.0029,-0.0027,0,0,0,0,0,0,-0.0051,-0.0052,-0.0064,-0.0061,-0.0063,-0.0074,-0.0074,-0.0076,-0.0082,-0.0083,-0.0083,-0.0088,-0.0086,-0.0085,-0.0077,-0.0066,-0.0085,-0.0085,-0.0032,-0.003,-0.0028,-0.0035,0,0,0,0,0,0,-0.0051,-0.0052,-0.0053,-0.0061,-0.0063,-0.0069,-0.0074,-0.0076,-0.0083,-0.0084,-0.0087,-0.0087,-0.0086,-0.0077,-0.0077,-0.0066,-0.0085,-0.0034,-0.0031,-0.0029,-0.0036,-0.0033,-0.0031,0,0,0,0,0,-0.005,-0.0046,-0.0053,-0.0054,-0.0063,-0.0069,-0.007,-0.0078,-0.0084,-0.0084,-0.0081,-0.0087,-0.006,-0.0077,-0.0076,-0.0065,-0.0035,-0.0032,-0.0029,-0.0038,-0.0034,-0.0031,0,0,0,0,0,0,-0.0037,-0.0047,-0.0054,-0.0053,-0.0062,-0.007,-0.0071,-0.0079,-0.0079,-0.0078,-0.008,-0.0079,-0.0065,-0.0059,-0.0077,-0.0036,-0.0044,-0.004,-0.005,-0.0047,-0.0044,-0.0032,-0.0085,0,0,0,0,0,-0.0036,-0.0037,-0.0049,-0.0048,-0.0052,-0.0063,-0.0067,-0.0073,-0.0074,-0.0075,-0.0078,-0.0066,-0.0051,-0.0046,-0.0035,-0.0021,-0.0026,-0.0006,-0.0003,-0.0001,0.0012,0.0018,0.0021,-0.0017,-0.0017,-0.0017,0,0,-0.003,-0.0036,-0.0037,-0.0046,-0.0052,-0.005,-0.0066,-0.0069,-0.0064,-0.0074,-0.0066,-0.0063,-0.0045,-0.0026,-0.0017,-0.0021,0.0002,0.0003,0.0004,0.0017,0.0021,0.0025,0.0028,-0.0015,-0.0015,-0.0015,0,0,-0.0016,-0.0025,-0.0022,-0.0028,-0.0038,-0.0042,-0.0044,-0.0055,-0.0056,-0.0051,-0.0048,-0.0037,-0.0025,-0.0006,0.0006,0.0034,0.0015,0.0041,0.0062,0.0067,0.0069,0.0072,0.0039,0.0039,0.0044,0.0044,0.0044,0,-0.0009,-0.0006,-0.0021,-0.0019,-0.0017,-0.0037,-0.0029,-0.0032,-0.0038,-0.0028,-0.0045,-0.0011,-0.001,0.003,0.0039,0.0039,0.0026,0.0039,0.0068,0.007,0.0073,0.0039,0.0039,0.0044,0.0044,0.0044,0.0044,0,0.0007,0.0008,0.0011,0.001,0.001,0.0012,0.0007,0.0008,0.0001,0.0002,0.0026,0.0025,0.0049,0.0051,0.005,0.008,0.0057,0.0063,0.005,0.0076,0.0039,0.0038,0.0044,0.0044,0.0044,0.0044,0,0,0.0023,0.0023,0.0024,0.0032,0.0025,0.0031,0.0043,0.0056,0.0075,0.0064,0.0091,0.0104,0.0098,0.0113,0.0111,0.0113,0.0098,0.0095,0.0095,0.0047,0.0078,0.0053,0.005,0.0103,0.0104,0.0105,0.0033,0,0.004,0.0056,0.0052,0.0073,0.0082,0.0076,0.0095,0.0105,0.0107,0.0126,0.0129,0.0149,0.0124,0.0131,0.0131,0.0114,0.0103,0.0115,0.0076,0.0075,0.0037,0.0052,0.0107,0.0033,0.0033,0.0033,0.0033,0,0.0055,0.0066,0.0089,0.0112,0.0118,0.013,0.0161,0.0173,0.0195,0.0199,0.0213,0.0206,0.0211,0.0185,0.0156,0.0162,0.0124,0.01,0.0097,0.0083,0.0051,0.0013,0.0032,0.0032,0.0032,0.0032,0.0032,0,0.0075,0.0094,0.0117,0.0121,0.0142,0.0161,0.0176,0.0199,0.0225,0.0244,0.026,0.0258,0.0257,0.0221,0.0156,0.0157,0.0111,0.0107,0.0045,0.004,0.0083,0.0082,0.0091,0.0091,0.0091,0.0091,0.0091,0,0.0092,0.0111,0.0129,0.0141,0.018,0.0187,0.0232,0.0245,0.0279,0.0318,0.0298,0.0316,0.0268,0.0231,0.0169,0.0097,0.0116,0.0051,0.0032,0.0078,0.0078,0.008,0.008,0.0088,0.0089,0.009,0.009,0,0.0103,0.0113,0.0143,0.0174,0.0188,0.0215,0.0266,0.0303,0.0321,0.0368,0.0375,0.0362,0.0306,0.0237,0.0168,0.0113,0.0047,0.0016,0.0044,0.0026,-0.0036,-0.0035,-0.0057,-0.0058,-0.0059,-0.006,-0.0061,0,0.0108,0.0123,0.0165,0.0189,0.0203,0.0246,0.0284,0.0321,0.0362,0.0393,0.042,0.038,0.0355,0.0232,0.0154,0.0026,0.0013,-0.0037,-0.0008,-0.0029,-0.0046,-0.0043,-0.0041,-0.0062,-0.0063,-0.0063,-0.0063,0,0.0117,0.0131,0.0157,0.0207,0.025,0.0304,0.0357,0.039,0.0434,0.045,0.0458,0.0398,0.0333,0.0234,0.0128,0.0042,-0.0008,-0.0047,-0.0045,-0.0019,-0.0035,-0.0051,-0.0048,-0.0067,-0.0066,-0.0066,-0.0066,0,0.0123,0.0141,0.0178,0.0225,0.0282,0.0346,0.0374,0.0421,0.0461,0.049,0.0486,0.0417,0.0379,0.0241,0.0147,0.0053,0.0036,0.0009,0.0008,0.0011,0.0055,0.0045,0.0027,0,0,0,0,0,0.0127,0.0151,0.0194,0.0252,0.0312,0.0349,0.0419,0.0447,0.0484,0.0495,0.0494,0.0431,0.0301,0.0248,0.0151,0.0121,0.0012,0.0004,-0.0021,-0.0086,-0.0082,-0.0043,0,0,0,0,0,0,0.0131,0.0166,0.0191,0.0267,0.0311,0.0387,0.0434,0.0463,0.047,0.0485,0.0419,0.0394,0.0268,0.0351,0.0144,0.0116,0.0084,-0.0054,-0.0057,-0.0089,-0.0085,-0.0082,-0.004,0,0,0,0,0]}]]